EST,Max TemperatureF,Mean TemperatureF,Min TemperatureF,Max Dew PointF,MeanDew PointF,Min DewpointF,Max Humidity, Mean Humidity, Min Humidity, Max Sea Level PressureIn, Mean Sea Level PressureIn, Min Sea Level PressureIn, Max VisibilityMiles, Mean VisibilityMiles, Min VisibilityMiles, Max Wind SpeedMPH, Mean Wind SpeedMPH, Max Gust SpeedMPH,PrecipitationIn, CloudCover, Events, WindDirDegrees
2013-2-1,33,28,23,27,13,5,86,53,40,30.33,30.05,29.84,10,7,0,21,12,33,0.00,4,,290
2013-2-2,30,26,21,25,12,5,86,58,46,30.37,30.26,30.06,10,9,1,15,9,25,0.00,2,,249
2013-2-3,33,28,24,25,23,19,93,76,60,30.05,29.90,29.84,10,10,10,15,4,20,0.00,3,,314
2013-2-4,37,30,26,27,14,9,69,52,43,30.10,30.01,29.89,10,10,10,21,12,30,0.00,3,,271
2013-2-5,42,38,33,32,28,25,87,71,49,29.95,29.91,29.87,10,10,5,10,4,,0.00,5,,138
2013-2-6,41,34,26,30,26,19,87,72,53,30.36,30.15,29.92,10,10,8,16,5,23,0.00,2,,325
2013-2-7,42,33,24,36,23,16,81,67,52,30.49,30.39,30.23,10,10,8,14,6,20,0.00,2,,53
2013-2-8,46,40,35,43,38,30,93,86,76,30.22,29.82,29.58,10,8,2,26,12,34,1.65,8,,17
2013-2-9,35,32,28,32,18,12,87,57,44,30.37,30.10,29.78,10,10,10,22,16,34,0.02,2,,311
2013-2-10,37,29,21,32,16,7,81,55,38,30.51,30.43,30.33,10,10,10,12,7,18,0.00,0,,106
2013-2-11,53,46,39,50,44,32,94,87,75,30.34,29.96,29.71,10,8,2,24,11,32,0.24,6,,184
2013-2-12,48,40,33,43,30,27,82,61,43,29.99,29.93,29.77,10,10,10,14,7,23,0.00,0,,303
2013-2-13,44,36,28,34,30,25,93,76,57,29.99,29.80,29.61,10,8,2,15,7,23,0.35,5,,45
2013-2-14,44,38,33,34,32,30,93,81,61,30.06,29.96,29.71,10,7,3,10,7,,0.01,3,,277
2013-2-15,53,43,33,39,34,30,93,73,54,30.07,30.01,29.94,10,10,3,15,8,20,0.00,1,,192
2013-2-16,41,36,30,34,31,23,87,82,65,29.98,29.88,29.74,10,8,1,15,8,22,0.11,8,,345
2013-2-17,33,30,26,19,11,5,60,47,38,30.09,29.86,29.71,10,10,10,24,15,39,0.00,4,,306
2013-2-18,35,29,23,21,11,3,56,46,37,30.35,30.27,30.09,10,10,10,25,14,34,0.00,1,,275
2013-2-19,48,42,35,43,34,25,87,72,60,30.24,29.98,29.75,10,10,6,16,12,22,0.06,4,,199
2013-2-20,39,34,28,30,17,9,75,49,43,30.10,29.96,29.82,10,10,10,20,13,31,0.00,1,,295
2013-2-21,35,30,24,19,14,10,60,51,44,30.29,30.15,30.08,10,10,10,20,14,32,0.00,1,,306
2013-2-22,37,32,26,34,24,14,93,69,55,30.41,30.33,30.23,10,10,10,14,7,18,0.03,4,,43
2013-2-23,48,42,37,46,42,34,93,91,87,30.24,29.97,29.77,10,8,1,17,8,25,0.16,8,,59
2013-2-24,46,40,35,39,32,21,93,72,49,30.05,29.86,29.76,10,8,2,15,9,26,0.00,4,,316
2013-2-25,42,36,28,28,24,19,86,62,46,30.25,30.16,30.05,10,10,10,14,8,22,0.00,0,,297
2013-2-26,48,37,26,46,34,23,93,83,66,30.26,30.09,29.67,10,8,4,21,7,30,0.73,6,,64
2013-2-27,51,48,44,48,42,36,94,79,58,29.70,29.61,29.50,10,8,0,17,9,24,0.01,7,,225
2013-2-28,44,40,37,37,33,28,93,75,53,29.70,29.65,29.61,10,10,3,10,4,20,0.00,6,,283